Location: Mountain Grove
(34.0887°N, 86.6172°W)
Time: 15:03:28
(UTC+00:00)

NOSS 3-3 (A) - Pass Details

Date: 14 July 2020
Orbit: 825 x 1387 km, 63.4° (Epoch: 07 August)

Event Time Altitude Azimuth Distance (km) Brightness Sun altitude
Rises 01:17:10 0° 215° (SW) 3,358 6.9 -4.1°
Reaches altitude 10° 01:19:32 10° 217° (SW) 2,451 6.2 -4.5°
Maximum altitude 01:25:08 73° 302° (WNW) 930 4.2 -5.5°
Drops below altitude 10° 01:31:23 10° 27° (NNE) 2,715 6.4 -6.6°
Sets 01:34:07 0° 29° (NNE) 3,748 7.1 -7.1°
